Hourly Weather Bartlewo

Today, 18 April, Sunday

Time Temperature Precipitation Wind Pressure Humidity
00:00 +5°C° 0 mm 2 mps 750 mmHg 94%
01:00 +5°C° 0 mm 2 mps 750 mmHg 93%
02:00 +5°C° 0 mm 2 mps 750 mmHg 93%
03:00 +5°C° 0 mm 2 mps 749 mmHg 93%
04:00 +5°C° 0 mm 2 mps 749 mmHg 93%
05:00 +6°C° 0 mm 2 mps 749 mmHg 91%
06:00 +7°C° 0 mm 2 mps 749 mmHg 88%
07:00 +8°C° 0 mm 2 mps 749 mmHg 86%
08:00 +9°C° 0.4 mm 3 mps 750 mmHg 82%
09:00 +10°C° 0.4 mm 3 mps 750 mmHg 78%
10:00 +11°C° 0.4 mm 3 mps 750 mmHg 75%
11:00 +10°C° 1 mm 3 mps 750 mmHg 79%
12:00 +9°C° 1 mm 2 mps 750 mmHg 83%
13:00 +9°C° 1 mm 2 mps 750 mmHg 87%
14:00 +9°C° 0.4 mm 2 mps 750 mmHg 85%
15:00 +9°C° 0.4 mm 2 mps 750 mmHg 83%
16:00 +9°C° 0.4 mm 3 mps 750 mmHg 81%
17:00 +9°C° 0.5 mm 3 mps 750 mmHg 85%
18:00 +8°C° 0.5 mm 2 mps 750 mmHg 90%
19:00 +7°C° 0.5 mm 2 mps 750 mmHg 95%
20:00 +7°C° 0 mm 2 mps 750 mmHg 95%
21:00 +7°C° 0 mm 2 mps 750 mmHg 95%
22:00 +8°C° 0 mm 1 mps 750 mmHg 96%
23:00 +8°C° 0 mm 1 mps 750 mmHg 96%

Tomorrow, 19 April, Monday

Time Temperature Precipitation Wind Pressure Humidity
00:00 +8°C° 0 mm 1 mps 750 mmHg 95%
01:00 +8°C° 0 mm 1 mps 750 mmHg 95%
02:00 +8°C° 0.1 mm 1 mps 750 mmHg 95%
03:00 +8°C° 0.1 mm 1 mps 750 mmHg 95%
04:00 +8°C° 0.1 mm 1 mps 749 mmHg 95%
05:00 +8°C° 0.1 mm 1 mps 749 mmHg 92%
06:00 +8°C° 0.1 mm 2 mps 749 mmHg 90%
07:00 +9°C° 0.1 mm 2 mps 749 mmHg 87%
08:00 +10°C° 0.1 mm 2 mps 749 mmHg 82%
09:00 +12°C° 0.1 mm 2 mps 749 mmHg 77%
10:00 +12°C° 0.1 mm 3 mps 749 mmHg 72%
11:00 +13°C° 0.2 mm 3 mps 749 mmHg 66%
12:00 +14°C° 0.2 mm 3 mps 749 mmHg 60%
13:00 +16°C° 0.2 mm 3 mps 749 mmHg 53%
14:00 +16°C° 0.1 mm 3 mps 749 mmHg 53%
15:00 +15°C° 0.1 mm 4 mps 748 mmHg 52%
16:00 +15°C° 0.1 mm 4 mps 748 mmHg 51%
17:00 +13°C° 0.1 mm 4 mps 748 mmHg 59%
18:00 +11°C° 0.1 mm 4 mps 748 mmHg 67%
19:00 +10°C° 0.1 mm 3 mps 748 mmHg 74%
20:00 +9°C° 0 mm 3 mps 748 mmHg 77%
21:00 +8°C° 0 mm 2 mps 748 mmHg 80%
22:00 +8°C° 0 mm 2 mps 748 mmHg 84%
23:00 +8°C° 0.1 mm 2 mps 748 mmHg 84%

Day after tomorrow, 20 April, Tuesday

Time Temperature Precipitation Wind Pressure Humidity
00:00 +9°C° 0.1 mm 1 mps 748 mmHg 85%
01:00 +9°C° 0.1 mm 1 mps 747 mmHg 86%
02:00 +9°C° 0.1 mm 1 mps 747 mmHg 86%
03:00 +9°C° 0.1 mm 1 mps 747 mmHg 86%
04:00 +9°C° 0.1 mm 1 mps 747 mmHg 87%
05:00 +9°C° 0.2 mm 1 mps 747 mmHg 86%
06:00 +8°C° 0.2 mm 2 mps 747 mmHg 86%
07:00 +8°C° 0.2 mm 2 mps 747 mmHg 85%
08:00 +9°C° 0.2 mm 2 mps 747 mmHg 80%
09:00 +9°C° 0.2 mm 2 mps 747 mmHg 76%
10:00 +10°C° 0.2 mm 3 mps 747 mmHg 71%
11:00 +10°C° 0 mm 2 mps 747 mmHg 68%
12:00 +11°C° 0 mm 1 mps 746 mmHg 65%
13:00 +11°C° 0 mm 1 mps 746 mmHg 62%
14:00 +11°C° 0 mm 1 mps 746 mmHg 61%
15:00 +12°C° 0 mm 1 mps 746 mmHg 60%
16:00 +12°C° 0 mm 1 mps 745 mmHg 60%
17:00 +11°C° 0 mm 1 mps 745 mmHg 63%
18:00 +10°C° 0 mm 1 mps 745 mmHg 67%
19:00 +9°C° 0 mm 1 mps 745 mmHg 71%
20:00 +9°C° 0 mm 1 mps 745 mmHg 71%
21:00 +9°C° 0 mm 1 mps 745 mmHg 72%
22:00 +8°C° 0 mm 1 mps 745 mmHg 73%
23:00 +8°C° 0 mm 1 mps 744 mmHg 74%

21 April, Wednesday

Time Temperature Precipitation Wind Pressure Humidity
00:00 +8°C° 0 mm 1 mps 744 mmHg 75%
01:00 +8°C° 0 mm 1 mps 744 mmHg 76%
02:00 +8°C° 0.3 mm 1 mps 743 mmHg 81%
03:00 +7°C° 0.3 mm 1 mps 743 mmHg 85%
04:00 +7°C° 0.3 mm 1 mps 743 mmHg 89%
05:00 +7°C° 0.2 mm 1 mps 743 mmHg 88%
06:00 +7°C° 0.2 mm 2 mps 742 mmHg 86%
07:00 +7°C° 0.2 mm 2 mps 742 mmHg 85%
08:00 +9°C° 0.2 mm 1 mps 742 mmHg 80%
09:00 +10°C° 0.2 mm 1 mps 742 mmHg 75%
10:00 +10°C° 0.2 mm 1 mps 742 mmHg 70%
11:00 +11°C° 0.3 mm 1 mps 742 mmHg 69%
12:00 +10°C° 0.3 mm 2 mps 741 mmHg 67%
13:00 +10°C° 0.3 mm 2 mps 741 mmHg 66%
14:00 +10°C° 0.2 mm 2 mps 741 mmHg 65%
15:00 +10°C° 0.2 mm 3 mps 741 mmHg 65%
16:00 +10°C° 0.2 mm 3 mps 741 mmHg 65%
17:00 +7°C° 0.1 mm 4 mps 741 mmHg 73%
18:00 +5°C° 0.1 mm 4 mps 741 mmHg 82%
19:00 +4°C° 0.1 mm 4 mps 742 mmHg 90%
20:00 +3°C° 0.2 mm 3 mps 742 mmHg 91%
21:00 +3°C° 0.2 mm 3 mps 742 mmHg 91%
22:00 +4°C° 0.2 mm 2 mps 742 mmHg 92%
23:00 +3°C° 0 mm 2 mps 742 mmHg 92%

22 April, Thursday

Time Temperature Precipitation Wind Pressure Humidity
00:00 +3°C° 0 mm 2 mps 743 mmHg 93%
01:00 +1°C° 0 mm 3 mps 743 mmHg 93%
02:00 +1°C° 0 mm 3 mps 743 mmHg 94%
03:00 0°C° 0 mm 3 mps 743 mmHg 94%
04:00 +1°C° 0 mm 2 mps 744 mmHg 95%
05:00 0°C° 0 mm 3 mps 744 mmHg 91%
06:00 +1°C° 0 mm 3 mps 745 mmHg 87%
07:00 +1°C° 0 mm 3 mps 745 mmHg 83%
08:00 +3°C° 0 mm 3 mps 745 mmHg 74%
09:00 +4°C° 0 mm 3 mps 746 mmHg 65%
10:00 +6°C° 0 mm 2 mps 746 mmHg 56%
11:00 +7°C° 0.1 mm 2 mps 747 mmHg 55%
12:00 +7°C° 0.1 mm 2 mps 747 mmHg 53%
13:00 +7°C° 0.1 mm 2 mps 747 mmHg 52%
14:00 +7°C° 0.3 mm 2 mps 748 mmHg 55%
15:00 +7°C° 0.3 mm 2 mps 748 mmHg 57%
16:00 +7°C° 0.3 mm 2 mps 748 mmHg 59%
17:00 +6°C° 0.2 mm 2 mps 749 mmHg 67%
18:00 +5°C° 0.2 mm 2 mps 749 mmHg 74%
19:00 +4°C° 0.2 mm 2 mps 750 mmHg 81%
20:00 +3°C° 0 mm 2 mps 750 mmHg 84%
21:00 +3°C° 0 mm 2 mps 750 mmHg 87%
22:00 +2°C° 0 mm 2 mps 751 mmHg 90%
23:00 +3°C° 0 mm 1 mps 751 mmHg 90%

23 April, Friday

Time Temperature Precipitation Wind Pressure Humidity
00:00 +3°C° 0 mm 1 mps 751 mmHg 90%
01:00 +3°C° 0 mm 1 mps 751 mmHg 91%
02:00 +2°C° 0 mm 1 mps 752 mmHg 91%
03:00 +2°C° 0 mm 1 mps 752 mmHg 92%
04:00 +1°C° 0 mm 1 mps 752 mmHg 92%
05:00 +2°C° 0 mm 2 mps 753 mmHg 88%
06:00 +3°C° 0 mm 2 mps 753 mmHg 84%
07:00 +3°C° 0 mm 3 mps 753 mmHg 80%
08:00 +4°C° 0.1 mm 3 mps 754 mmHg 73%
09:00 +7°C° 0.1 mm 3 mps 754 mmHg 66%
10:00 +8°C° 0.1 mm 3 mps 754 mmHg 59%
11:00 +8°C° 0.1 mm 4 mps 754 mmHg 56%
12:00 +8°C° 0.1 mm 4 mps 754 mmHg 53%
13:00 +10°C° 0.1 mm 4 mps 754 mmHg 50%
14:00 +8°C° 0 mm 5 mps 754 mmHg 52%
15:00 +8°C° 0 mm 5 mps 755 mmHg 54%
16:00 +8°C° 0 mm 5 mps 755 mmHg 56%
17:00 +6°C° 0 mm 5 mps 755 mmHg 62%
18:00 +5°C° 0 mm 4 mps 755 mmHg 68%
19:00 +4°C° 0 mm 4 mps 756 mmHg 73%
20:00 +4°C° 0.1 mm 4 mps 756 mmHg 75%
21:00 +4°C° 0.1 mm 4 mps 756 mmHg 77%
22:00 +4°C° 0.1 mm 4 mps 756 mmHg 79%
23:00 +4°C° 0 mm 4 mps 755 mmHg 81%
Show more